Lakeland Region, FL

11:38 AM EDT on August 17, 2017 (GMT -0400)
Lakeland Linder Regional

Weather History for KLAL - March, 2013

Change the Weather History Date:

Monday, March 4, 2013

  Actual Average Record
Temperature  
Mean Temperature 50 °F -  
Max Temperature 66 °F 74 °F 88 °F (1989)
Min Temperature 33 °F 55 °F 33 °F (2013)
Degree Days  
Heating Degree Days 16    
Moisture  
Dew Point 30 °F    
Average Humidity 61    
Maximum Humidity 87    
Minimum Humidity 19    
Precipitation  
Precipitation 0.00 in - - ()
Sea Level Pressure  
Sea Level Pressure 30.18 in    
Wind  
Wind Speed 2 mph (North)    
Max Wind Speed 9 mph    
Max Gust Speed -    
Visibility 12 miles    
Events      
Averages and records for this station are not official NWS values.
T = Trace of Precipitation, MM = Missing Value Source: NWS Daily Summary

Daily Weather History Graph

Daily Weather History Graph

Search for Another Location

Airport or City:

Trip Planner

Search our weather history database for the weather conditions in past years. The results will help you decide how hot, cold, wet, or windy it might be!

Date:

Astronomy

Mar. 04, 2013 Rise Set
Actual Time 6:49 AM EST 6:30 PM EST
Civil Twilight 6:25 AM EST 6:53 PM EST
Nautical Twilight 5:58 AM EST 7:21 PM EST
Astronomical Twilight 5:31 AM EST 7:48 PM EST
Moon 12:37 AM EST (3/4) 11:32 AM EST (3/4)
Length of Visible Light 12h 28m
Length of Day
11h 41m
Waning Gibbous, 52% of the Moon is Illuminated
Mar 4
Waning Gibbous
Mar 4
Last Quarter
Mar 11
New
Mar 19
First Quarter
Mar 27
Full

Hourly Weather History & Observations

Time (EST) Temp. Windchill Dew Point Humidity Pressure Visibility Wind Dir Wind Speed Gust Speed Precip Events Conditions
12:15 AM 35.6 °F - 32.0 °F 87% 30.19 in 10.0 mi Calm Calm - N/A   Clear
12:35 AM 37.4 °F - 32.0 °F 81% 30.19 in 10.0 mi Calm Calm - N/A   Mostly Cloudy
12:55 AM 37.4 °F - 32.0 °F 81% 30.18 in 10.0 mi Calm Calm - N/A   Overcast
1:15 AM 37.4 °F - 33.8 °F 87% 30.18 in 10.0 mi Calm Calm - N/A   Overcast
1:35 AM 37.4 °F - 33.8 °F 87% 30.18 in 10.0 mi Calm Calm - N/A   Mostly Cloudy
1:55 AM 37.4 °F - 33.8 °F 87% 30.18 in 10.0 mi Calm Calm - N/A   Mostly Cloudy
2:15 AM 39.2 °F - 33.8 °F 81% 30.17 in 10.0 mi Calm Calm - N/A   Overcast
2:55 AM 37.4 °F 34.9 °F 32.0 °F 81% 30.17 in 10.0 mi NNE 3.5 mph - N/A   Mostly Cloudy
3:15 AM 37.4 °F 34.9 °F 32.0 °F 81% 30.16 in 10.0 mi North 3.5 mph - N/A   Clear
3:35 AM 37.4 °F - 32.0 °F 81% 30.16 in 10.0 mi Calm Calm - N/A   Clear
3:55 AM 37.4 °F - 32.0 °F 81% 30.16 in 10.0 mi Calm Calm - N/A   Clear
4:15 AM 35.6 °F - 32.0 °F 87% 30.16 in 10.0 mi Calm Calm - N/A   Clear
4:35 AM 35.6 °F 32.8 °F 32.0 °F 87% 30.17 in 10.0 mi North 3.5 mph - N/A   Clear
4:55 AM 35.6 °F 32.8 °F 32.0 °F 87% 30.17 in 10.0 mi NNE 3.5 mph - N/A   Clear
5:15 AM 35.6 °F 31.7 °F 32.0 °F 87% 30.18 in 10.0 mi NNE 4.6 mph - N/A   Clear
5:35 AM 35.6 °F 32.8 °F 32.0 °F 87% 30.19 in 10.0 mi North 3.5 mph - N/A   Clear
5:55 AM 35.6 °F - 30.2 °F 81% 30.19 in 12.0 mi Calm Calm - N/A   Clear
6:51 AM 33.8 °F - 30.2 °F 87% 30.21 in 12.0 mi Calm Calm - N/A   Clear
8:52 AM 46.4 °F 41.9 °F 23.0 °F 40% 30.26 in 15.0 mi NNE 9.2 mph - N/A   Clear
9:50 AM 51.8 °F - 21.2 °F 30% 30.25 in 15.0 mi North 9.2 mph - N/A   Clear
10:54 AM 53.6 °F - 23.0 °F 30% 30.23 in 20.0 mi NNE 9.2 mph - N/A   Clear
12:51 PM 60.8 °F - 23.0 °F 23% 30.19 in 20.0 mi North 4.6 mph - N/A   Clear
1:50 PM 62.6 °F - 21.2 °F 20% 30.16 in 20.0 mi North 3.5 mph - N/A   Clear
2:50 PM 66.2 °F - 23.0 °F 19% 30.14 in 20.0 mi NNW 3.5 mph - N/A   Clear
3:50 PM 66.2 °F - 23.0 °F 19% 30.13 in 20.0 mi Calm Calm - N/A   Clear
4:50 PM 66.2 °F - 24.8 °F 21% 30.13 in 20.0 mi Variable 3.5 mph - N/A   Clear
5:50 PM 66.2 °F - 24.8 °F 21% 30.15 in 20.0 mi Calm Calm - N/A   Clear
6:50 PM 60.8 °F - 28.4 °F 29% 30.16 in 20.0 mi Calm Calm - N/A   Clear
7:50 PM 55.4 °F - 33.8 °F 44% 30.18 in 10.0 mi NW 5.8 mph - N/A   Clear
8:55 PM 51.8 °F - 30.2 °F 44% 30.18 in 10.0 mi NNW 5.8 mph - N/A   Clear
9:50 PM 50.0 °F - 30.2 °F 47% 30.19 in 10.0 mi NNE 3.5 mph - N/A   Clear
9:55 PM 48.2 °F - 32.0 °F 54% 30.19 in 10.0 mi Calm Calm - N/A   Clear
10:15 PM 48.2 °F - 32.0 °F 54% 30.19 in 10.0 mi Calm Calm - N/A   Clear
10:35 PM 46.4 °F - 32.0 °F 57% 30.19 in 10.0 mi Calm Calm - N/A   Clear
10:55 PM 46.4 °F - 32.0 °F 57% 30.19 in 10.0 mi Calm Calm - N/A   Clear
11:15 PM 41.0 °F - 32.0 °F 70% 30.19 in 10.0 mi Calm Calm - N/A   Clear
11:55 PM 42.8 °F - 32.0 °F 66% 30.19 in 10.0 mi Calm Calm - N/A   Clear